KG5VSR Weather Reports


time (UTC)temp
C
wind
direction
speed
KPH
gust
KPH
rain 1hr
cm
rain 24hr
cm
rain mn
cm
humidity
%
barometer
mb
20260831190814 37 148 12.9 20.9 0.00 0.00 0.00 39 1016.3
20260831183810 37 262 3.2 4.8 0.00 0.00 0.00 40 1016.6
20260831180806 37 56 3.2 3.2 0.00 0.00 0.00 40 1016.9
20260831173804 36 202 3.2 4.8 0.00 0.00 0.00 44 1017.5
20260831170800 35 271 0.0 1.6 0.00 0.00 0.00 49 1017.8
20260831163759 34 281 0.0 0.0 0.00 0.00 0.00 52 1018.0
20260831160755 33 183 8.0 9.7 0.00 0.00 0.00 53 1017.9
20260831153753 32 212 3.2 3.2 0.00 0.00 0.00 58 1017.9
20260831150753 31 266 1.6 1.6 0.00 0.00 0.00 64 1018.0
20260831143753 29 221 1.6 1.6 0.00 0.00 0.00 69 1017.8
20260831140752 28 153 3.2 3.2 0.00 0.00 0.00 72 1017.6
20260831133748 28 202 3.2 3.2 0.00 0.00 0.00 73 1017.4
20260831130747 27 200 1.6 1.6 0.00 0.00 0.00 74 1017.1
20260831123746 26 221 0.0 0.0 0.00 0.00 0.00 76 1016.4
20260831120744 26 248 0.0 0.0 0.00 0.00 0.00 79 1016.4
20260831113742 26 157 0.0 1.6 0.00 0.00 0.00 77 1015.9
20260831110742 26 149 3.2 4.8 0.00 0.00 0.00 75 1015.7
20260831103740 27 229 0.0 0.0 0.00 0.00 0.00 73 1015.9
20260831100741 27 216 0.0 0.0 0.00 0.00 0.00 72 1015.5
20260831093740 27 189 1.6 1.6 0.00 0.00 0.00 70 1015.7
20260831090740 28 207 0.0 0.0 0.00 0.00 0.00 67 1015.1
20260831083738 28 150 1.6 3.2 0.00 0.00 0.00 65 1015.2
20260831080737 28 213 1.6 3.2 0.00 0.00 0.00 62 1015.0
20260831073736 29 208 1.6 1.6 0.00 0.00 0.00 61 1015.0
20260831070732 27 233 0.0 0.0 0.00 0.00 0.00 65 1014.8
20260831063727 28 240 0.0 0.0 0.00 0.00 0.00 62 1014.9
20260831060724 29 226 0.0 0.0 0.00 0.00 0.00 61 1014.9
20260831053725 28 251 0.0 0.0 0.00 0.00 0.00 61 1014.9
20260831050720 29 260 0.0 0.0 0.00 0.00 0.00 59 1014.9
20260831043718 30 265 0.0 0.0 0.00 0.00 0.00 55 1014.8
20260831040715 31 236 0.0 0.0 0.00 0.00 0.00 53 1014.7
20260831033714 31 219 0.0 0.0 0.00 0.00 0.00 52 1014.5
20260831030709 31 260 0.0 0.0 0.00 0.00 0.00 52 1014.2
20260831023707 32 214 0.0 0.0 0.00 0.00 0.00 50 1013.9
20260831020705 32 250 0.0 0.0 0.00 0.00 0.00 49 1013.7
20260831013704 33 157 1.6 1.6 0.00 0.00 0.00 46 1013.2
20260831010702 34 213 1.6 3.2 0.00 0.00 0.00 44 1012.9
20260831003702 35 167 3.2 3.2 0.00 0.00 0.00 43 1013.0
20260831000703 36 233 1.6 1.6 0.00 0.00 0.00 43 1013.1
20260830233701 36 94 3.2 3.2 0.00 0.00 0.00 41 1013.1
20260830230701 37 155 4.8 4.8 0.00 0.00 0.00 40 1013.2
20260830223701 36 199 3.2 3.2 0.00 0.00 0.00 39 1013.2
20260830220656 38 152 11.3 14.5 0.00 0.00 0.00 36 1013.4
20260830213655 37 216 12.9 14.5 0.00 0.00 0.00 36 1013.5
20260830210655 37 240 1.6 3.2 0.00 0.00 0.00 38 1013.8
20260830203653 38 293 3.2 4.8 0.00 0.00 0.00 37 1014.1
20260830200651 38 299 0.0 1.6 0.00 0.00 0.00 39 1014.5
20260830193650 37 120 4.8 4.8 0.00 0.00 0.00 40 1015.0